This is the latest recevied weather packets stored in our database for station/object N0KWA. If no packets are shown the sender has not sent any weather packets the latest 10 day(s).
| Time | Temp. | Humidity | Pressure | Rain* | Wind** | Luminosity | Snow |
|---|---|---|---|---|---|---|---|
| 1777943234 | 17.78° C | 77% | 1015.6 hPa | 0 mm | - | 0 W/m² | - |
| 1777942931 | 18.33° C | 76% | 1015.8 hPa | 0 mm | - | 0 W/m² | - |
| 1777942627 | 18.33° C | 74% | 1015.9 hPa | 0 mm | - | 0 W/m² | - |
| 1777942325 | 18.89° C | 72% | 1015.9 hPa | 0 mm | - | 0 W/m² | - |
| 1777942022 | 18.89° C | 72% | 1015.9 hPa | 0 mm | - | 0 W/m² | - |
| 1777941718 | 19.44° C | 72% | 1015.9 hPa | 0 mm | - | 0 W/m² | - |
| 1777941415 | 19.44° C | 70% | 1015.9 hPa | 0 mm | - | 0 W/m² | - |
| 1777941113 | 20° C | 67% | 1016 hPa | 0 mm | - | 0 W/m² | - |
| 1777940809 | 20° C | 69% | 1015.8 hPa | 0 mm | - | 0 W/m² | - |
| 1777940507 | 20.56° C | 67% | 1015.8 hPa | 0 mm | - | 0 W/m² | - |
| 1777940204 | 20.56° C | 63% | 1015.9 hPa | 0 mm | - | 0 W/m² | - |
| 1777939902 | 21.11° C | 60% | 1016 hPa | 0 mm | - | 0 W/m² | - |
| 1777939599 | 21.11° C | 59% | 1015.9 hPa | 0 mm | - | 0 W/m² | - |
| 1777939297 | 21.67° C | 57% | 1015.9 hPa | 0 mm | - | 0 W/m² | - |
| 1777938992 | 21.67° C | 55% | 1015.9 hPa | 0 mm | - | 0 W/m² | - |
| 1777938689 | 21.67° C | 55% | 1016 hPa | 0 mm | - | 1 W/m² | - |
| 1777938386 | 22.22° C | 54% | 1016.1 hPa | 0 mm | - | 2 W/m² | - |
| 1777938083 | 22.22° C | 53% | 1016.1 hPa | 0 mm | - | 1 W/m² | - |
| 1777937779 | 22.78° C | 52% | 1016.2 hPa | 0 mm | - | 3 W/m² | - |
| 1777937475 | 22.78° C | 53% | 1016.1 hPa | 0 mm | - | 3 W/m² | - |
| 1777937173 | 22.78° C | 52% | 1016 hPa | 0 mm | - | 3 W/m² | - |
| 1777936870 | 23.33° C | 53% | 1016.1 hPa | 0 mm | - | 4 W/m² | - |
| 1777936566 | 23.33° C | 52% | 1016.3 hPa | 0 mm | - | 10 W/m² | - |
| 1777936262 | 23.33° C | 51% | 1016.5 hPa | 0 mm | - | 23 W/m² | - |
| 1777935958 | 23.33° C | 51% | 1016.4 hPa | 0 mm | - | 26 W/m² | - |
* Rain latest hour (hover to see other rain measurements)
** Current wind speed in m/s (hover to see current wind gust speed)